Volver al catálogo

FENGYUN 1C DEB

ActivoPO
NORAD 31644·DEBRIS·🇨🇳 China

Lanzado May 10, 1999 desde Taiyuan Satellite Launch Center

Loading…

Próximos Pases (próximas 24 horas)

TLE

ActualizadoSource: Space-Track

Época: Sep 13, 2026, 14:03 UTC

1 31644U 99025CBA 26256.58562882  .00005267  00000-0  73210-3 0  9994
2 31644  98.6476 168.1359 0148705  44.3075  75.0057 14.70936264750818

Sigue FENGYUN 1C DEB en tiempo real con AllMySat

Download on the App Store